[[{"header":{"parameterUnit":"m.s-1","parameterCategory":1,"la1":30.2991,"la2":30.254,"lo1":-89.0895,"lo2":-89.0444,"dy":0.0017,"dx":0.0017,"nx":28,"ny":28,"refTime":"2025-12-25T03:00:00:Z","depth":0,"parameterNumber":2,"parameterNumberName":"U-component_of_WINDS"},"data":[0,0,0,0,0,0,0,0,0,0,0,0,0,0,0,0,0,0,0,0,0,0,0,0,0,0,0,0,0,0,0,0,0,0,0,0,0,0,0,0,0,0,0,0,0,0,0,0,0,0,0,0,0,0,0,0,0,0,2.0214,2.0215,0,2.0328,2.0329,2.0331,2.0345,2.0344,2.0343,2.0341,2.046,2.0464,2.0469,0,0,0,0,0,0,0,0,0,0,0,0,0,2.001,2.0013,2.0213,2.0215,2.0216,2.0328,2.0329,2.0331,2.0345,2.0344,2.0342,2.0341,2.0459,2.0464,2.0469,0,0,0,0,0,0,0,0,0,0,0,0,0,2.0109,2.0015,2.0213,2.0237,2.024,2.0327,2.0329,2.0331,2.0345,2.0344,2.0342,2.034,2.0457,2.0463,2.047,2.0542,0,0,2.0489,2.0492,0,0,0,0,0,0,0,0,2.0103,2.0116,2.0232,2.0235,2.0239,2.032,2.0301,2.0402,2.0346,2.0305,2.0341,2.034,2.0415,2.0425,2.045,2.0548,2.0553,2.0489,2.0493,2.0496,2.0498,0,0,0,0,0,0,0,2.0096,2.0111,2.0259,2.0233,2.0238,2.0243,2.0255,2.032,2.0368,2.0309,2.031,2.0323,2.0417,2.0444,2.0453,2.0555,2.0489,2.0495,2.0499,2.0501,2.072,2.0722,0,0,0,0,0,0,2.0085,2.0105,2.0255,2.0262,2.0165,2.0248,2.0261,2.0296,2.0368,2.0377,2.0325,2.0324,2.0434,2.0446,2.0457,2.0548,2.0496,2.0502,2.0506,2.0718,2.072,2.0722,0,0,0,0,0,0,2.008,2.0098,2.0251,2.0184,2.0204,2.0253,2.0292,2.0299,2.0326,2.038,2.0388,2.0343,2.0433,2.0448,2.0521,2.0552,2.0505,2.051,2.0715,2.0718,2.0721,2.0729,0,0,0,0,0,0,2.0074,2.0096,2.0123,2.0185,2.0208,2.0312,2.0294,2.0303,2.0337,2.0336,2.0399,2.0408,2.0433,2.0512,2.0528,2.056,2.0515,2.0713,2.0717,2.072,2.0726,2.0732,2.0736,0,0,0,0,0,2.0067,2.0121,2.0124,2.0142,2.0242,2.0313,2.0326,2.0353,2.0339,2.0367,2.0402,2.0406,2.0546,2.0519,2.0537,2.0572,2.0711,2.0716,2.072,2.0723,2.073,2.0736,0,0,0,0,0,0,2.0061,2.0129,2.0134,2.0209,2.0255,2.0315,2.0352,2.036,2.0411,2.0409,2.044,2.0455,2.0526,2.0557,2.0525,2.0647,2.0627,2.0636,2.0624,2.0631,2.0636,2.0627,2.0521,0,0,0,0,0,2.0069,2.012,2.0177,2.0238,2.0261,2.0302,2.0334,2.0351,2.0401,2.042,2.046,2.0509,2.0564,2.0599,2.0653,2.0731,2.0746,2.0764,2.0769,2.0773,2.078,2.0825,2.0834,2.0737,2.0737,2.0737,0,0,2.0085,2.0128,2.0158,2.0238,2.0275,2.0329,2.0319,2.0375,2.0415,2.0429,2.05,2.0532,2.0588,2.0664,2.07,2.0691,2.081,2.0779,2.0782,2.0786,2.083,2.084,2.0848,2.074,2.074,2.0739,0,0,2.0141,2.0178,2.0234,2.0272,2.033,2.0358,2.0371,2.0431,2.0452,2.0525,2.0536,2.0586,2.0679,2.0719,2.0752,2.0826,2.0832,2.0843,2.087,2.0914,2.0922,2.0929,2.0956,2.0965,2.085,2.085,2.085,0,2.0153,2.0233,2.0261,2.0318,2.0353,2.0369,2.0426,2.0462,2.0534,2.0559,2.0549,2.0668,2.0707,2.0793,2.0812,2.0838,2.0855,2.0835,2.0918,2.0925,2.0932,2.0959,2.0969,2.0851,2.0851,2.0851,2.085,0,2.0246,2.0302,2.034,2.041,2.0449,2.0506,2.0544,2.0581,2.0595,2.0625,2.0699,2.0747,2.0811,2.0833,2.0847,2.0922,2.0915,2.0911,2.0893,2.0942,2.0967,2.0977,2.0852,2.0852,2.0851,2.0851,0,0,2.03,2.0386,2.0399,2.0432,2.0498,2.0542,2.0601,2.0663,2.0695,2.0745,2.0795,2.0876,2.0873,2.091,2.093,2.0968,2.1025,2.096,2.0962,2.097,2.1112,2.1114,2.1125,2.103,2.1032,2.1034,2.1107,0,2.0363,2.0467,2.0495,2.0583,2.0636,2.0653,2.0704,2.0751,2.078,2.083,2.0863,2.092,2.0912,2.0935,2.0973,2.101,2.1054,2.1005,2.1078,2.108,2.1063,2.1138,2.1141,2.1207,2.1117,2.1119,2.112,0,2.0451,2.0503,2.0596,2.0658,2.0681,2.0726,2.0787,2.0834,2.0888,2.0908,2.095,2.0967,2.103,2.1008,2.1096,2.1062,2.1095,2.1117,2.1121,2.1128,2.1103,2.1148,2.1229,2.1239,2.1136,2.1135,2.1134,0,2.0481,2.0575,2.0643,2.0671,2.0743,2.0775,2.0807,2.086,2.0896,2.095,2.0975,2.1035,2.1068,2.1115,2.1148,2.113,2.1234,2.1215,2.1252,2.1251,2.1272,2.1271,2.136,2.1294,2.1294,2.1293,2.1293,0,2.0549,2.0605,2.0658,2.07,2.0764,2.0797,2.0861,2.0894,2.0941,2.099,2.1009,2.1055,2.1096,2.1149,2.1175,2.1245,2.126,2.1278,2.1284,2.1276,2.1273,2.1296,2.1292,2.1296,2.1295,2.1295,2.1294,0,2.0592,2.063,2.0705,2.0769,2.0786,2.0831,2.0886,2.0928,2.096,2.1022,2.1039,2.1088,2.1151,2.1189,2.1269,2.1287,2.1363,2.1368,2.1345,2.1348,2.1383,2.1379,2.149,2.1506,2.1429,2.143,2.143,0,2.0632,2.0676,2.0745,2.078,2.0812,2.0868,2.0905,2.0941,2.098,2.1046,2.1081,2.1145,2.1198,2.1298,2.1341,2.1403,2.1409,2.1444,2.1418,2.1409,2.141,2.1406,2.1412,2.1448,2.1448,2.1449,2.1449,0,2.07,2.0717,2.0771,2.0832,2.0876,2.0926,2.0976,2.1003,2.1047,2.109,2.1155,2.1196,2.1278,2.1342,2.1407,2.1442,2.1453,2.1457,2.1469,2.1461,2.1446,2.1455,2.1356,2.1454,2.1454,2.1453,2.1453,2.1453,2.0744,2.0784,2.0839,2.0899,2.094,2.0987,2.103,2.1067,2.1121,2.1191,2.1209,2.1277,2.1333,2.1422,2.1458,2.1512,2.1507,2.1524,2.1528,2.1532,2.1533,2.1438,2.1525,2.1525,2.1524,2.1524,2.1524,0,2.0812,2.0849,2.0904,2.0973,2.1021,2.1028,2.1084,2.1123,2.1183,2.1234,2.1286,2.1361,2.1424,2.1473,2.1538,2.1572,2.1579,2.1588,2.1585,2.1593,2.1534,2.1517,2.1581,2.1581,2.1581,2.1581,2.1581,2.1581,2.0854,2.0923,2.0947,2.1038,2.1075,2.1141,2.1173,2.1216,2.1257,2.134,2.1393,2.1424,2.1475,2.1544,2.1603,2.1616,2.1639,2.1647,2.1661,2.1604,2.1597,2.1591,2.1576,2.1651,2.1651,2.1716,2.1716,2.1717]},{"header":{"parameterUnit":"m.s-1","parameterCategory":1,"la1":30.2991,"la2":30.254,"lo1":-89.0895,"lo2":-89.0444,"dy":0.0017,"dx":0.0017,"nx":28,"ny":28,"refTime":"2025-12-25T03:00:00:Z","depth":0,"parameterNumber":3,"parameterNumberName":"V-component_of_WINDS"},"data":[0,0,0,0,0,0,0,0,0,0,0,0,0,0,0,0,0,0,0,0,0,0,0,0,0,0,0,0,0,0,0,0,0,0,0,0,0,0,0,0,0,0,0,0,0,0,0,0,0,0,0,0,0,0,0,0,0,0,0.924,0.924,0,0.9254,0.9254,0.9254,0.9256,0.9256,0.9256,0.9256,0.9269,0.9269,0.927,0,0,0,0,0,0,0,0,0,0,0,0,0,0.9213,0.9213,0.924,0.924,0.924,0.9254,0.9254,0.9254,0.9256,0.9256,0.9256,0.9256,0.9269,0.9269,0.927,0,0,0,0,0,0,0,0,0,0,0,0,0,0.9225,0.9214,0.9239,0.9243,0.9243,0.9254,0.9254,0.9254,0.9256,0.9256,0.9256,0.9256,0.9269,0.9269,0.927,0.9278,0,0,0.9272,0.9272,0,0,0,0,0,0,0,0,0.9225,0.9226,0.9242,0.9243,0.9243,0.9253,0.9249,0.9262,0.9256,0.9251,0.9256,0.9256,0.9264,0.9265,0.9268,0.9278,0.9279,0.9272,0.9273,0.9273,0.9273,0,0,0,0,0,0,0,0.9224,0.9226,0.9245,0.9242,0.9243,0.9243,0.9245,0.9252,0.9258,0.9252,0.9252,0.9254,0.9264,0.9267,0.9268,0.9279,0.9272,0.9273,0.9273,0.9273,0.9297,0.9297,0,0,0,0,0,0,0.9223,0.9225,0.9245,0.9246,0.9233,0.9244,0.9245,0.925,0.9258,0.9259,0.9254,0.9254,0.9266,0.9267,0.9269,0.9279,0.9273,0.9274,0.9274,0.9297,0.9297,0.9297,0,0,0,0,0,0,0.9222,0.9224,0.9244,0.9235,0.9238,0.9244,0.9249,0.925,0.9254,0.926,0.9261,0.9256,0.9266,0.9268,0.9276,0.9279,0.9274,0.9274,0.9296,0.9297,0.9297,0.9298,0,0,0,0,0,0,0.9221,0.9224,0.9228,0.9235,0.9238,0.9251,0.925,0.9251,0.9255,0.9255,0.9262,0.9263,0.9266,0.9275,0.9276,0.928,0.9275,0.9296,0.9297,0.9297,0.9298,0.9299,0.9299,0,0,0,0,0,0.922,0.9227,0.9228,0.923,0.9243,0.9252,0.9253,0.9257,0.9255,0.9259,0.9262,0.9263,0.9278,0.9275,0.9277,0.9281,0.9296,0.9296,0.9297,0.9298,0.9299,0.9299,0,0,0,0,0,0,0.9219,0.9228,0.9229,0.9238,0.9244,0.9252,0.9256,0.9257,0.9263,0.9263,0.9267,0.9268,0.9276,0.9279,0.9276,0.9289,0.9287,0.9288,0.9287,0.9288,0.9288,0.9287,0.9276,0,0,0,0,0,0.9219,0.9226,0.9234,0.9241,0.9244,0.925,0.9254,0.9256,0.9262,0.9264,0.9269,0.9274,0.928,0.9284,0.929,0.9298,0.93,0.9302,0.9302,0.9303,0.9304,0.9309,0.931,0.9299,0.9299,0.9299,0,0,0.9221,0.9227,0.9231,0.9241,0.9246,0.9253,0.9252,0.9259,0.9264,0.9265,0.9273,0.9277,0.9283,0.9291,0.9295,0.9294,0.9307,0.9303,0.9304,0.9304,0.9309,0.931,0.9311,0.9299,0.9299,0.9299,0,0,0.9227,0.9233,0.924,0.9245,0.9252,0.9256,0.9257,0.9265,0.9267,0.9276,0.9277,0.9282,0.9293,0.9297,0.9301,0.9309,0.9309,0.931,0.9314,0.9318,0.9319,0.932,0.9323,0.9324,0.9311,0.9311,0.9311,0,0.9228,0.9239,0.9243,0.925,0.9255,0.9257,0.9264,0.9268,0.9277,0.928,0.9278,0.9292,0.9296,0.9305,0.9307,0.931,0.9312,0.931,0.9319,0.932,0.9321,0.9324,0.9325,0.9311,0.9311,0.9311,0.9311,0,0.924,0.9247,0.9252,0.9261,0.9266,0.9273,0.9278,0.9282,0.9284,0.9287,0.9295,0.9301,0.9308,0.931,0.9311,0.932,0.9319,0.9318,0.9316,0.9322,0.9325,0.9326,0.9312,0.9311,0.9311,0.9311,0,0,0.9246,0.9258,0.9259,0.9263,0.9272,0.9277,0.9284,0.9292,0.9295,0.9301,0.9307,0.9315,0.9315,0.9319,0.9321,0.9325,0.9332,0.9324,0.9324,0.9326,0.9341,0.9342,0.9343,0.9332,0.9332,0.9332,0.9341,0,0.9254,0.9267,0.9271,0.9282,0.9289,0.9291,0.9296,0.9302,0.9305,0.9311,0.9314,0.9321,0.932,0.9322,0.9326,0.933,0.9335,0.9329,0.9337,0.9337,0.9336,0.9345,0.9346,0.9353,0.9342,0.9342,0.9342,0,0.9265,0.9272,0.9283,0.9291,0.9294,0.9299,0.9307,0.9312,0.9318,0.932,0.9325,0.9327,0.9333,0.9331,0.934,0.9336,0.934,0.9342,0.9342,0.9344,0.9341,0.9347,0.9356,0.9357,0.9344,0.9344,0.9344,0,0.9269,0.928,0.9289,0.9293,0.9302,0.9306,0.9309,0.9315,0.932,0.9326,0.9328,0.9335,0.9338,0.9343,0.9346,0.9344,0.9356,0.9353,0.9358,0.9357,0.936,0.936,0.9371,0.9362,0.9362,0.9362,0.9362,0,0.9277,0.9284,0.9291,0.9297,0.9305,0.9309,0.9316,0.932,0.9325,0.9331,0.9333,0.9338,0.9342,0.9347,0.935,0.9357,0.9359,0.9361,0.9361,0.9361,0.9361,0.9363,0.9363,0.9362,0.9362,0.9362,0.9362,0,0.9283,0.9288,0.9297,0.9305,0.9308,0.9313,0.932,0.9325,0.9328,0.9335,0.9337,0.9342,0.9349,0.9353,0.9361,0.9363,0.9371,0.9371,0.937,0.937,0.9374,0.9374,0.9387,0.939,0.9379,0.9379,0.9379,0,0.9288,0.9294,0.9303,0.9307,0.9311,0.9318,0.9323,0.9327,0.9331,0.9339,0.9343,0.935,0.9356,0.9366,0.937,0.9377,0.9377,0.9382,0.9378,0.9378,0.9378,0.9378,0.9378,0.9382,0.9382,0.9382,0.9382,0,0.9298,0.93,0.9307,0.9314,0.932,0.9326,0.9332,0.9335,0.934,0.9345,0.9352,0.9357,0.9366,0.9373,0.9379,0.9383,0.9383,0.9383,0.9385,0.9385,0.9384,0.9385,0.9372,0.9383,0.9383,0.9383,0.9383,0.9383,0.9304,0.9309,0.9316,0.9324,0.9329,0.9334,0.934,0.9344,0.935,0.9358,0.936,0.9368,0.9373,0.9382,0.9386,0.9392,0.9391,0.9393,0.9393,0.9394,0.9394,0.9382,0.9393,0.9393,0.9393,0.9393,0.9393,0,0.9313,0.9318,0.9325,0.9334,0.934,0.934,0.9347,0.9352,0.9359,0.9364,0.937,0.9379,0.9385,0.939,0.9397,0.94,0.9401,0.9402,0.9402,0.9403,0.9395,0.9393,0.9402,0.9402,0.9402,0.9402,0.9402,0.9402,0.9319,0.9328,0.9331,0.9343,0.9347,0.9356,0.9359,0.9364,0.9369,0.9378,0.9384,0.9387,0.9393,0.94,0.9406,0.9407,0.9409,0.9411,0.9412,0.9404,0.9403,0.9402,0.9401,0.9411,0.9411,0.942,0.942,0.942]}]]